Time,TemperatureF,DewpointF,PressureIn,WindDirection,WindDirectionDegrees,WindSpeedMPH,WindSpeedGustMPH,Humidity,HourlyPrecipIn,Conditions,Clouds,dailyrainin,SoftwareType,DateUTC
2013-03-24 00:00:00,74.3,67.5,29.84,SSE,158,0.0,0.0,79,0.00,,,0.00,WUHU216HW,2013-03-24 04:00:00,
2013-03-24 00:01:00,74.3,67.5,29.84,SSE,158,0.0,0.0,79,0.00,,,0.00,WUHU216HW,2013-03-24 04:01:00,
2013-03-24 00:03:00,74.3,67.5,29.84,SSE,158,0.0,0.0,79,0.00,,,0.00,WUHU216HW,2013-03-24 04:03:00,
2013-03-24 00:08:00,74.3,67.5,29.84,SSE,158,0.0,0.0,79,0.00,,,0.00,WUHU216HW,2013-03-24 04:08:00,
2013-03-24 00:30:00,73.8,67.3,29.84,SSE,158,0.0,0.0,80,0.00,,,0.00,WUHU216HW,2013-03-24 04:30:00,
2013-03-24 00:31:00,73.8,67.3,29.84,SSE,158,0.0,0.0,80,0.00,,,0.00,WUHU216HW,2013-03-24 04:31:00,
2013-03-24 00:36:00,73.8,67.3,29.84,SSE,158,0.0,0.0,80,0.00,,,0.00,WUHU216HW,2013-03-24 04:36:00,
2013-03-24 01:00:00,73.4,67.3,29.83,SE,135,0.2,0.2,81,0.00,,,0.00,WUHU216HW,2013-03-24 05:00:00,
2013-03-24 01:01:00,73.4,67.3,29.83,SE,135,0.2,0.2,81,0.00,,,0.00,WUHU216HW,2013-03-24 05:01:00,
2013-03-24 01:06:00,73.4,67.3,29.83,SE,135,0.2,0.2,81,0.00,,,0.00,WUHU216HW,2013-03-24 05:06:00,
2013-03-24 01:30:00,73.1,67.3,29.81,SE,135,0.2,0.2,82,0.00,,,0.00,WUHU216HW,2013-03-24 05:30:00,
2013-03-24 01:31:00,73.1,67.3,29.81,SE,135,0.2,0.2,82,0.00,,,0.00,WUHU216HW,2013-03-24 05:31:00,
2013-03-24 01:36:00,73.1,67.3,29.81,SE,135,0.2,0.2,82,0.00,,,0.00,WUHU216HW,2013-03-24 05:36:00,
2013-03-24 02:00:00,72.7,67.0,29.81,SE,135,0.2,0.2,82,0.00,,,0.00,WUHU216HW,2013-03-24 06:00:00,
2013-03-24 02:01:00,72.7,67.0,29.81,SE,135,0.2,0.2,82,0.00,,,0.00,WUHU216HW,2013-03-24 06:01:00,
2013-03-24 02:06:00,72.7,67.0,29.81,SE,135,0.2,0.2,82,0.00,,,0.00,WUHU216HW,2013-03-24 06:06:00,
2013-03-24 02:30:00,72.4,66.6,29.81,SE,135,0.4,0.4,82,0.00,,,0.00,WUHU216HW,2013-03-24 06:30:00,
2013-03-24 02:31:00,72.4,66.6,29.81,SE,135,0.4,0.4,82,0.00,,,0.00,WUHU216HW,2013-03-24 06:31:00,
2013-03-24 02:36:00,72.4,66.6,29.81,SE,135,0.4,0.4,82,0.00,,,0.00,WUHU216HW,2013-03-24 06:36:00,
2013-03-24 03:00:00,72.4,66.6,29.81,SE,135,0.4,0.4,82,0.00,,,0.00,WUHU216HW,2013-03-24 07:00:00,
2013-03-24 03:01:00,72.4,66.6,29.81,SE,135,0.4,0.4,82,0.00,,,0.00,WUHU216HW,2013-03-24 07:01:00,
2013-03-24 03:06:00,72.4,66.6,29.81,SE,135,0.4,0.4,82,0.00,,,0.00,WUHU216HW,2013-03-24 07:06:00,
2013-03-24 03:30:00,72.2,66.4,29.79,SSE,158,0.4,0.4,82,0.00,,,0.00,WUHU216HW,2013-03-24 07:30:00,
2013-03-24 03:31:00,72.2,66.4,29.79,SSE,158,0.4,0.4,82,0.00,,,0.00,WUHU216HW,2013-03-24 07:31:00,
2013-03-24 03:36:00,72.2,66.4,29.79,SSE,158,0.4,0.4,82,0.00,,,0.00,WUHU216HW,2013-03-24 07:36:00,
2013-03-24 04:00:00,72.2,66.7,29.79,SSE,158,0.4,0.4,83,0.00,,,0.00,WUHU216HW,2013-03-24 08:00:00,
2013-03-24 04:01:00,72.2,66.7,29.79,SSE,158,0.4,0.4,83,0.00,,,0.00,WUHU216HW,2013-03-24 08:01:00,
2013-03-24 04:06:00,72.2,66.7,29.79,SSE,158,0.4,0.4,83,0.00,,,0.00,WUHU216HW,2013-03-24 08:06:00,
2013-03-24 04:30:00,72.9,68.9,29.77,SSE,158,3.4,3.4,87,0.00,,,0.00,WUHU216HW,2013-03-24 08:30:00,
2013-03-24 04:31:00,72.9,68.9,29.77,SSE,158,3.4,3.4,87,0.00,,,0.00,WUHU216HW,2013-03-24 08:31:00,
2013-03-24 04:36:00,72.9,68.9,29.77,SSE,158,3.4,3.4,87,0.00,,,0.00,WUHU216HW,2013-03-24 08:36:00,
2013-03-24 05:00:00,73.1,69.3,29.76,SSE,158,1.8,1.8,88,0.00,,,0.00,WUHU216HW,2013-03-24 09:00:00,
2013-03-24 05:01:00,73.1,69.3,29.76,SSE,158,1.8,1.8,88,0.00,,,0.00,WUHU216HW,2013-03-24 09:01:00,
2013-03-24 05:06:00,73.1,69.3,29.76,SSE,158,1.8,1.8,88,0.00,,,0.00,WUHU216HW,2013-03-24 09:06:00,
2013-03-24 05:30:00,73.6,69.6,29.76,South,180,1.6,1.6,87,0.00,,,0.00,WUHU216HW,2013-03-24 09:30:00,
2013-03-24 05:31:00,73.6,69.6,29.76,South,180,1.6,1.6,87,0.00,,,0.00,WUHU216HW,2013-03-24 09:31:00,
2013-03-24 05:36:00,73.6,69.6,29.76,South,180,1.6,1.6,87,0.00,,,0.00,WUHU216HW,2013-03-24 09:36:00,
2013-03-24 05:59:00,73.8,69.4,29.75,SE,135,4.0,4.0,86,0.00,,,0.00,WUHU216HW,2013-03-24 09:59:00,
2013-03-24 06:01:00,73.8,69.4,29.75,SE,135,4.0,4.0,86,0.00,,,0.00,WUHU216HW,2013-03-24 10:01:00,
2013-03-24 06:06:00,73.8,69.4,29.75,SE,135,4.0,4.0,86,0.00,,,0.00,WUHU216HW,2013-03-24 10:06:00,
2013-03-24 06:30:00,74.3,70.3,29.74,South,180,7.4,7.4,87,0.00,,,0.00,WUHU216HW,2013-03-24 10:30:00,
2013-03-24 06:31:00,74.3,70.3,29.74,South,180,7.4,7.4,87,0.00,,,0.00,WUHU216HW,2013-03-24 10:31:00,
2013-03-24 06:36:00,74.3,70.3,29.74,South,180,7.4,7.4,87,0.00,,,0.00,WUHU216HW,2013-03-24 10:36:00,
2013-03-24 07:00:00,74.2,70.1,29.74,SW,225,5.1,5.1,87,0.00,,,0.00,WUHU216HW,2013-03-24 11:00:00,
2013-03-24 07:01:00,74.2,70.1,29.74,SW,225,5.1,5.1,87,0.00,,,0.00,WUHU216HW,2013-03-24 11:01:00,
2013-03-24 07:06:00,74.2,70.1,29.74,SW,225,5.1,5.1,87,0.00,,,0.00,WUHU216HW,2013-03-24 11:06:00,
2013-03-24 07:30:00,74.2,70.4,29.74,SSE,158,6.9,6.9,88,0.00,,,0.00,WUHU216HW,2013-03-24 11:30:00,
2013-03-24 07:31:00,74.2,70.4,29.74,SSE,158,6.9,6.9,88,0.00,,,0.00,WUHU216HW,2013-03-24 11:31:00,
2013-03-24 07:36:00,74.2,70.4,29.74,SSE,158,6.9,6.9,88,0.00,,,0.00,WUHU216HW,2013-03-24 11:36:00,
2013-03-24 08:00:00,74.3,70.6,29.73,SSE,158,5.8,5.8,88,0.00,,,0.00,WUHU216HW,2013-03-24 12:00:00,
2013-03-24 08:01:00,74.3,70.6,29.73,SSE,158,5.8,5.8,88,0.00,,,0.00,WUHU216HW,2013-03-24 12:01:00,
2013-03-24 08:06:00,74.3,70.6,29.73,SSE,158,5.8,5.8,88,0.00,,,0.00,WUHU216HW,2013-03-24 12:06:00,
2013-03-24 08:30:00,74.7,70.9,29.73,ESE,113,2.2,2.2,88,0.00,,,0.00,WUHU216HW,2013-03-24 12:30:00,
2013-03-24 08:31:00,74.7,70.9,29.73,ESE,113,2.2,2.2,88,0.00,,,0.00,WUHU216HW,2013-03-24 12:31:00,
2013-03-24 08:36:00,74.7,70.9,29.73,ESE,113,2.2,2.2,88,0.00,,,0.00,WUHU216HW,2013-03-24 12:36:00,
2013-03-24 09:00:00,75.4,71.4,29.74,SSE,158,5.1,5.1,87,0.00,,,0.00,WUHU216HW,2013-03-24 13:00:00,
2013-03-24 09:01:00,75.4,71.4,29.74,SSE,158,5.1,5.1,87,0.00,,,0.00,WUHU216HW,2013-03-24 13:01:00,
2013-03-24 09:06:00,75.4,71.4,29.74,SSE,158,5.1,5.1,87,0.00,,,0.00,WUHU216HW,2013-03-24 13:06:00,
2013-03-24 09:30:00,76.5,72.0,29.74,ESE,113,2.9,2.9,86,0.00,,,0.00,WUHU216HW,2013-03-24 13:30:00,
2013-03-24 09:31:00,76.5,72.0,29.74,ESE,113,2.9,2.9,86,0.00,,,0.00,WUHU216HW,2013-03-24 13:31:00,
2013-03-24 09:36:00,76.5,72.0,29.74,ESE,113,2.9,2.9,86,0.00,,,0.00,WUHU216HW,2013-03-24 13:36:00,
2013-03-24 09:59:00,77.6,72.4,29.75,SSE,158,6.0,6.0,84,0.00,,,0.00,WUHU216HW,2013-03-24 13:59:00,
2013-03-24 10:01:00,77.6,72.4,29.75,SSE,158,6.0,6.0,84,0.00,,,0.00,WUHU216HW,2013-03-24 14:01:00,
2013-03-24 10:06:00,77.6,72.4,29.75,SSE,158,6.0,6.0,84,0.00,,,0.00,WUHU216HW,2013-03-24 14:06:00,
2013-03-24 10:29:00,79.0,73.5,29.77,South,180,1.8,1.8,83,0.00,,,0.00,WUHU216HW,2013-03-24 14:29:00,
2013-03-24 10:31:00,79.0,73.5,29.77,South,180,1.8,1.8,83,0.00,,,0.00,WUHU216HW,2013-03-24 14:31:00,
2013-03-24 10:36:00,79.0,73.5,29.77,South,180,1.8,1.8,83,0.00,,,0.00,WUHU216HW,2013-03-24 14:36:00,
2013-03-24 10:59:00,79.7,73.5,29.78,SSE,158,6.9,6.9,81,0.00,,,0.00,WUHU216HW,2013-03-24 14:59:00,
2013-03-24 11:01:00,79.7,73.5,29.78,SSE,158,6.9,6.9,81,0.00,,,0.00,WUHU216HW,2013-03-24 15:01:00,
2013-03-24 11:06:00,79.7,73.5,29.78,SSE,158,6.9,6.9,81,0.00,,,0.00,WUHU216HW,2013-03-24 15:06:00,
2013-03-24 11:29:00,80.1,73.8,29.79,SE,135,6.7,6.7,81,0.00,,,0.00,WUHU216HW,2013-03-24 15:29:00,
2013-03-24 11:31:00,80.1,73.8,29.79,SE,135,6.7,6.7,81,0.00,,,0.00,WUHU216HW,2013-03-24 15:31:00,
2013-03-24 11:36:00,80.1,73.8,29.79,SE,135,6.7,6.7,81,0.00,,,0.00,WUHU216HW,2013-03-24 15:36:00,
2013-03-24 11:59:00,81.0,74.3,29.79,SSE,158,6.9,6.9,80,0.00,,,0.00,WUHU216HW,2013-03-24 15:59:00,
2013-03-24 12:01:00,81.0,74.3,29.79,SSE,158,6.9,6.9,80,0.00,,,0.00,WUHU216HW,2013-03-24 16:01:00,
2013-03-24 12:06:00,81.0,74.3,29.79,SSE,158,6.9,6.9,80,0.00,,,0.00,WUHU216HW,2013-03-24 16:06:00,
2013-03-24 12:30:00,82.1,75.0,29.78,South,180,2.5,2.5,79,0.00,,,0.00,WUHU216HW,2013-03-24 16:30:00,
2013-03-24 12:31:00,82.1,75.0,29.78,South,180,2.5,2.5,79,0.00,,,0.00,WUHU216HW,2013-03-24 16:31:00,
2013-03-24 12:36:00,82.1,75.0,29.78,South,180,2.5,2.5,79,0.00,,,0.00,WUHU216HW,2013-03-24 16:36:00,
2013-03-24 12:59:00,83.5,76.3,29.77,SSE,158,4.7,4.7,79,0.00,,,0.00,WUHU216HW,2013-03-24 16:59:00,
2013-03-24 13:01:00,83.5,76.3,29.77,SSE,158,4.7,4.7,79,0.00,,,0.00,WUHU216HW,2013-03-24 17:01:00,
2013-03-24 13:06:00,83.5,76.3,29.77,SSE,158,4.7,4.7,79,0.00,,,0.00,WUHU216HW,2013-03-24 17:06:00,
2013-03-24 13:29:00,84.1,75.7,29.77,SSE,158,1.8,1.8,76,0.00,,,0.00,WUHU216HW,2013-03-24 17:29:00,
2013-03-24 13:31:00,84.1,75.7,29.77,SSE,158,1.8,1.8,76,0.00,,,0.00,WUHU216HW,2013-03-24 17:31:00,
2013-03-24 13:36:00,84.1,75.7,29.77,SSE,158,1.8,1.8,76,0.00,,,0.00,WUHU216HW,2013-03-24 17:36:00,
2013-03-24 13:59:00,83.2,75.3,29.77,SE,135,1.8,1.8,77,0.00,,,0.00,WUHU216HW,2013-03-24 17:59:00,
2013-03-24 14:01:00,83.2,75.3,29.77,SE,135,1.8,1.8,77,0.00,,,0.00,WUHU216HW,2013-03-24 18:01:00,
2013-03-24 14:06:00,83.2,75.3,29.77,SE,135,1.8,1.8,77,0.00,,,0.00,WUHU216HW,2013-03-24 18:06:00,
2013-03-24 14:29:00,82.4,75.3,29.76,SSW,203,1.3,1.3,79,0.00,,,0.00,WUHU216HW,2013-03-24 18:29:00,
2013-03-24 14:31:00,82.4,75.3,29.76,SSW,203,1.3,1.3,79,0.00,,,0.00,WUHU216HW,2013-03-24 18:31:00,
2013-03-24 14:36:00,82.4,75.3,29.76,SSW,203,1.3,1.3,79,0.00,,,0.00,WUHU216HW,2013-03-24 18:36:00,
2013-03-24 15:00:00,83.7,75.3,29.73,WSW,248,4.3,4.3,76,0.00,,,0.00,WUHU216HW,2013-03-24 19:00:00,
2013-03-24 15:01:00,83.7,75.3,29.73,WSW,248,4.3,4.3,76,0.00,,,0.00,WUHU216HW,2013-03-24 19:01:00,
2013-03-24 15:06:00,83.7,75.3,29.73,WSW,248,4.3,4.3,76,0.00,,,0.00,WUHU216HW,2013-03-24 19:06:00,
2013-03-24 15:30:00,83.9,74.7,29.73,ENE,68,2.2,2.2,74,0.00,,,0.00,WUHU216HW,2013-03-24 19:30:00,
2013-03-24 15:31:00,83.9,74.7,29.73,ENE,68,2.2,2.2,74,0.00,,,0.00,WUHU216HW,2013-03-24 19:31:00,
2013-03-24 15:36:00,83.9,74.7,29.73,ENE,68,2.2,2.2,74,0.00,,,0.00,WUHU216HW,2013-03-24 19:36:00,
2013-03-24 16:00:00,83.0,73.8,29.73,SSW,203,2.2,2.2,74,0.00,,,0.00,WUHU216HW,2013-03-24 20:00:00,
2013-03-24 16:01:00,83.0,73.8,29.73,SSW,203,2.2,2.2,74,0.00,,,0.00,WUHU216HW,2013-03-24 20:01:00,
2013-03-24 16:06:00,83.0,73.8,29.73,SSW,203,2.2,2.2,74,0.00,,,0.00,WUHU216HW,2013-03-24 20:06:00,
2013-03-24 16:30:00,84.2,74.6,29.71,SSE,158,2.7,2.7,73,0.00,,,0.00,WUHU216HW,2013-03-24 20:30:00,
2013-03-24 16:31:00,84.2,74.6,29.71,SSE,158,2.7,2.7,73,0.00,,,0.00,WUHU216HW,2013-03-24 20:31:00,
2013-03-24 16:36:00,84.2,74.6,29.71,SSE,158,2.7,2.7,73,0.00,,,0.00,WUHU216HW,2013-03-24 20:36:00,
2013-03-24 17:00:00,84.1,74.1,29.71,WSW,248,4.7,4.7,72,0.00,,,0.00,WUHU216HW,2013-03-24 21:00:00,
2013-03-24 17:01:00,84.1,74.1,29.71,WSW,248,4.7,4.7,72,0.00,,,0.00,WUHU216HW,2013-03-24 21:01:00,
2013-03-24 17:06:00,84.1,74.1,29.71,WSW,248,4.7,4.7,72,0.00,,,0.00,WUHU216HW,2013-03-24 21:06:00,
2013-03-24 17:30:00,83.5,74.4,29.70,South,180,3.4,3.4,74,0.00,,,0.00,WUHU216HW,2013-03-24 21:30:00,
2013-03-24 17:31:00,83.5,74.4,29.70,South,180,3.4,3.4,74,0.00,,,0.00,WUHU216HW,2013-03-24 21:31:00,
2013-03-24 17:36:00,83.5,74.4,29.70,South,180,3.4,3.4,74,0.00,,,0.00,WUHU216HW,2013-03-24 21:36:00,
2013-03-24 18:00:00,83.2,73.6,29.70,SSE,158,4.0,4.0,73,0.00,,,0.00,WUHU216HW,2013-03-24 22:00:00,
2013-03-24 18:01:00,83.2,73.6,29.70,SSE,158,4.0,4.0,73,0.00,,,0.00,WUHU216HW,2013-03-24 22:01:00,
2013-03-24 18:06:00,83.2,73.6,29.70,SSE,158,4.0,4.0,73,0.00,,,0.00,WUHU216HW,2013-03-24 22:06:00,
2013-03-24 18:30:00,81.7,73.0,29.70,SSE,158,2.2,2.2,75,0.00,,,0.00,WUHU216HW,2013-03-24 22:30:00,
2013-03-24 18:31:00,81.7,73.0,29.70,SSE,158,2.2,2.2,75,0.00,,,0.00,WUHU216HW,2013-03-24 22:31:00,
2013-03-24 18:36:00,81.7,73.0,29.70,SSE,158,2.2,2.2,75,0.00,,,0.00,WUHU216HW,2013-03-24 22:36:00,
2013-03-24 19:00:00,80.8,72.2,29.71,NE,45,2.0,2.0,75,0.00,,,0.00,WUHU216HW,2013-03-24 23:00:00,
2013-03-24 19:01:00,80.8,72.2,29.71,NE,45,2.0,2.0,75,0.00,,,0.00,WUHU216HW,2013-03-24 23:01:00,
2013-03-24 19:06:00,80.8,72.2,29.71,NE,45,2.0,2.0,75,0.00,,,0.00,WUHU216HW,2013-03-24 23:06:00,
2013-03-24 19:30:00,79.6,71.7,29.72,SSW,203,1.1,1.1,77,0.00,,,0.00,WUHU216HW,2013-03-24 23:30:00,
2013-03-24 19:31:00,79.6,71.7,29.72,SSW,203,1.1,1.1,77,0.00,,,0.00,WUHU216HW,2013-03-24 23:31:00,
2013-03-24 19:36:00,79.6,71.7,29.72,SSW,203,1.1,1.1,77,0.00,,,0.00,WUHU216HW,2013-03-24 23:36:00,
2013-03-24 20:00:00,78.1,71.8,29.72,SSW,203,1.8,1.8,81,0.02,,,0.00,WUHU216HW,2013-03-25 00:00:00,
2013-03-24 20:01:00,78.1,71.8,29.72,SSW,203,1.8,1.8,81,0.02,,,0.00,WUHU216HW,2013-03-25 00:01:00,
2013-03-24 20:06:00,78.1,71.8,29.72,SSW,203,1.8,1.8,81,0.02,,,0.00,WUHU216HW,2013-03-25 00:06:00,
2013-03-24 20:30:00,77.8,71.5,29.73,SSW,203,2.2,2.2,81,0.02,,,0.02,WUHU216HW,2013-03-25 00:30:00,
2013-03-24 20:31:00,77.8,71.5,29.73,SSW,203,2.2,2.2,81,0.02,,,0.02,WUHU216HW,2013-03-25 00:31:00,
2013-03-24 20:36:00,77.8,71.5,29.73,SSW,203,2.2,2.2,81,0.02,,,0.02,WUHU216HW,2013-03-25 00:36:00,
2013-03-24 20:59:00,77.4,71.1,29.74,WSW,248,1.3,1.3,81,0.00,,,0.02,WUHU216HW,2013-03-25 00:59:00,
2013-03-24 21:01:00,77.4,71.1,29.74,WSW,248,1.3,1.3,81,0.00,,,0.02,WUHU216HW,2013-03-25 01:01:00,
2013-03-24 21:06:00,77.4,71.1,29.74,WSW,248,1.3,1.3,81,0.00,,,0.02,WUHU216HW,2013-03-25 01:06:00,
2013-03-24 21:30:00,77.2,71.3,29.75,SW,225,1.1,1.1,82,0.00,,,0.02,WUHU216HW,2013-03-25 01:30:00,
2013-03-24 21:31:00,77.2,71.3,29.75,SW,225,1.1,1.1,82,0.00,,,0.02,WUHU216HW,2013-03-25 01:31:00,
2013-03-24 21:36:00,77.2,71.3,29.75,SW,225,1.1,1.1,82,0.00,,,0.02,WUHU216HW,2013-03-25 01:36:00,
2013-03-24 21:59:00,76.9,71.3,29.76,West,270,1.1,1.1,83,0.00,,,0.02,WUHU216HW,2013-03-25 01:59:00,
2013-03-24 22:01:00,76.9,71.3,29.76,West,270,1.1,1.1,83,0.00,,,0.02,WUHU216HW,2013-03-25 02:01:00,
2013-03-24 22:06:00,76.9,71.3,29.76,West,270,1.1,1.1,83,0.00,,,0.02,WUHU216HW,2013-03-25 02:06:00,
2013-03-24 22:30:00,76.3,70.8,29.76,WSW,248,1.8,1.8,83,0.00,,,0.02,WUHU216HW,2013-03-25 02:30:00,
2013-03-24 22:31:00,76.3,70.8,29.76,WSW,248,1.8,1.8,83,0.00,,,0.02,WUHU216HW,2013-03-25 02:31:00,
2013-03-24 22:36:00,76.3,70.8,29.76,WSW,248,1.8,1.8,83,0.00,,,0.02,WUHU216HW,2013-03-25 02:36:00,
2013-03-24 22:59:00,76.3,71.1,29.76,WSW,248,2.5,2.5,84,0.00,,,0.02,WUHU216HW,2013-03-25 02:59:00,
2013-03-24 23:01:00,76.3,71.1,29.76,WSW,248,2.5,2.5,84,0.00,,,0.02,WUHU216HW,2013-03-25 03:01:00,
2013-03-24 23:06:00,76.3,71.1,29.76,WSW,248,2.5,2.5,84,0.00,,,0.02,WUHU216HW,2013-03-25 03:06:00,
2013-03-24 23:30:00,76.3,71.5,29.76,SW,225,2.0,2.0,85,0.00,,,0.02,WUHU216HW,2013-03-25 03:30:00,
2013-03-24 23:31:00,76.3,71.5,29.76,SW,225,2.0,2.0,85,0.00,,,0.02,WUHU216HW,2013-03-25 03:31:00,
2013-03-24 23:36:00,76.3,71.5,29.76,SW,225,2.0,2.0,85,0.00,,,0.02,WUHU216HW,2013-03-25 03:36:00,
2013-03-24 23:59:00,76.0,71.2,29.76,WSW,248,1.8,1.8,85,0.00,,,0.02,WUHU216HW,2013-03-25 03:59:00,